Total_Precipitation_Accumulation
0.73 1.03 1.11 0.93 0.94 1.00 0.93 0.94 1.00 0.94 0.80 0.90 0.91 0.86 0.90 0.82 0.66 0.53 0.51 0.55 0.51 0.47 0.49 0.43 0.40 0.46 0.47 0.41 0.38 0.44 0.51 0.54 0.55 0.66 0.81 0.91 1.00 1.15 1.33 1.39 1.47 1.62 1.67 1.67
0.81 0.84 0.68 0.70 0.76 0.85 0.86 0.86 0.90 0.81 0.70 0.74 0.83 0.88 0.86 0.77 0.69 0.57 0.50 0.43 0.40 0.41 0.39 0.35 0.33 0.36 0.38 0.38 0.37 0.39 0.50 0.59 0.63 0.69 0.84 1.01 1.25 1.33 1.47 1.67 1.68 1.68 1.75 1.80
0.70 0.60 0.53 0.61 0.73 0.80 0.82 0.78 0.73 0.76 0.73 0.73 0.79 1.00 0.92 0.82 0.68 0.56 0.48 0.39 0.32 0.35 0.34 0.27 0.29 0.32 0.33 0.35 0.43 0.46 0.57 0.77 0.94 1.02 1.24 1.55 1.81 1.87 1.81 1.84 1.91 1.89 1.92 2.00
0.74 0.54 0.53 0.63 0.66 0.69 0.84 0.60 0.53 0.64 0.80 0.93 0.76 1.09 0.91 0.81 0.73 0.57 0.48 0.42 0.35 0.38 0.42 0.33 0.31 0.34 0.32 0.37 0.50 0.69 0.89 1.19 1.40 1.51 1.67 1.92 2.04 2.07 2.01 2.01 2.02 2.05 1.98 1.91
0.73 0.57 0.56 0.63 0.59 0.54 0.66 0.55 0.54 0.64 0.76 0.81 0.67 0.82 0.79 0.67 0.74 0.64 0.57 0.51 0.46 0.46 0.46 0.47 0.46 0.51 0.52 0.61 0.83 1.18 1.45 1.64 1.76 1.80 1.87 2.07 2.21 2.37 2.41 2.29 2.14 2.09 2.09 2.03
0.65 0.56 0.59 0.63 0.55 0.49 0.55 0.63 0.67 0.69 0.81 0.96 0.64 0.65 0.78 0.64 0.61 0.64 0.65 0.57 0.52 0.50 0.52 0.62 0.75 0.89 0.96 1.04 1.25 1.49 1.63 1.78 1.76 1.73 1.75 1.87 2.06 2.23 2.26 2.30 2.27 2.17 2.10 2.03
0.66 0.62 0.57 0.53 0.60 0.58 0.62 0.82 1.08 1.11 1.09 0.92 0.54 0.64 0.68 0.48 0.45 0.52 0.58 0.58 0.55 0.51 0.62 0.84 1.01 1.15 1.25 1.35 1.46 1.50 1.48 1.55 1.57 1.52 1.52 1.58 1.69 1.74 1.79 1.92 1.84 1.72 1.65 1.61
0.54 0.60 0.50 0.43 0.47 0.54 0.57 0.63 0.95 1.09 0.96 0.80 0.60 0.79 0.70 0.52 0.51 0.45 0.49 0.57 0.65 0.76 0.89 1.03 1.14 1.25 1.30 1.43 1.49 1.44 1.40 1.38 1.31 1.24 1.25 1.25 1.31 1.40 1.41 1.41 1.38 1.30 1.26 1.25
0.41 0.47 0.39 0.36 0.35 0.41 0.49 0.50 0.55 0.74 0.71 0.76 0.69 0.79 0.71 0.51 0.50 0.46 0.46 0.56 0.71 0.89 1.14 1.32 1.32 1.24 1.20 1.26 1.33 1.30 1.24 1.19 1.09 1.02 1.03 1.05 1.12 1.17 1.13 1.08 1.03 1.04 0.97 0.97
0.35 0.45 0.43 0.39 0.37 0.39 0.40 0.45 0.57 0.87 1.02 1.01 0.81 0.90 0.85 0.65 0.59 0.55 0.57 0.69 0.86 1.02 1.24 1.51 1.62 1.49 1.25 1.09 1.12 1.08 1.07 1.12 1.11 1.05 1.05 1.03 0.95 0.88 0.85 0.85 0.78 0.79 0.84 0.85
0.27 0.39 0.41 0.40 0.41 0.42 0.42 0.48 0.60 0.80 0.83 1.10 1.32 1.27 0.94 0.82 0.75 0.73 0.76 0.82 0.91 1.16 1.45 1.57 1.58 1.45 1.30 1.05 0.98 0.97 0.96 1.01 1.09 1.02 1.03 1.01 0.90 0.77 0.72 0.67 0.62 0.62 0.66 0.71
0.25 0.38 0.40 0.35 0.32 0.30 0.37 0.47 0.65 0.99 0.98 0.94 1.16 1.17 0.76 0.79 0.90 0.83 0.89 0.97 1.00 1.08 1.14 1.14 1.22 1.23 1.16 1.04 0.97 1.04 1.07 1.09 1.04 0.99 0.96 0.92 0.85 0.75 0.74 0.68 0.60 0.62 0.66 0.68
0.26 0.37 0.47 0.45 0.42 0.37 0.47 0.53 0.51 0.70 0.88 0.91 1.10 1.10 0.68 0.66 0.79 0.83 0.92 0.95 0.95 0.95 0.89 0.82 0.91 1.06 1.00 0.94 0.97 1.06 1.19 1.21 1.14 1.03 0.94 0.91 0.86 0.84 0.87 0.75 0.66 0.66 0.74 0.85
0.22 0.30 0.34 0.41 0.39 0.42 0.68 0.77 0.57 0.70 0.92 0.78 0.74 0.81 0.64 0.61 0.71 0.78 0.87 0.89 0.85 0.79 0.73 0.69 0.63 0.69 0.71 0.73 0.75 0.87 1.13 1.36 1.33 1.21 1.07 0.98 0.94 0.93 0.89 0.77 0.71 0.67 0.70 0.74
0.23 0.25 0.19 0.17 0.18 0.25 0.46 0.52 0.45 0.47 0.48 0.56 0.50 0.53 0.62 0.68 0.71 0.73 0.75 0.69 0.62 0.60 0.55 0.50 0.46 0.45 0.46 0.51 0.59 0.72 1.02 1.24 1.23 1.20 1.06 0.95 0.88 0.81 0.75 0.72 0.75 0.71 0.64 0.62
0.21 0.23 0.17 0.15 0.14 0.17 0.19 0.16 0.16 0.19 0.26 0.34 0.39 0.50 0.55 0.58 0.58 0.65 0.65 0.51 0.50 0.52 0.50 0.48 0.42 0.38 0.34 0.35 0.42 0.52 0.72 0.90 0.98 1.00 0.93 0.80 0.78 0.71 0.62 0.66 0.75 0.76 0.65 0.59
0.24 0.26 0.27 0.21 0.17 0.18 0.16 0.10 0.17 0.21 0.24 0.29 0.43 0.56 0.59 0.61 0.68 1.00 1.01 0.70 0.56 0.55 0.49 0.49 0.46 0.42 0.40 0.38 0.39 0.42 0.49 0.61 0.68 0.72 0.70 0.59 0.59 0.68 0.70 0.72 0.72 0.65 0.57 0.59
0.22 0.28 0.35 0.28 0.27 0.32 0.17 0.10 0.16 0.20 0.23 0.24 0.29 0.32 0.36 0.48 0.62 0.78 0.86 0.72 0.59 0.57 0.48 0.47 0.45 0.39 0.37 0.36 0.37 0.41 0.43 0.45 0.48 0.46 0.42 0.37 0.46 0.59 0.62 0.58 0.55 0.50 0.50 0.55
0.17 0.26 0.38 0.35 0.44 0.34 0.14 0.10 0.13 0.15 0.16 0.15 0.19 0.18 0.19 0.23 0.24 0.25 0.29 0.32 0.33 0.31 0.27 0.29 0.32 0.28 0.25 0.26 0.28 0.29 0.27 0.29 0.30 0.28 0.27 0.30 0.32 0.36 0.35 0.32 0.34 0.40 0.46 0.51
0.17 0.23 0.36 0.40 0.45 0.35 0.17 0.10 0.08 0.13 0.22 0.14 0.14 0.13 0.12 0.15 0.20 0.17 0.21 0.16 0.12 0.12 0.14 0.18 0.24 0.27 0.23 0.23 0.27 0.26 0.26 0.27 0.27 0.27 0.27 0.29 0.30 0.33 0.32 0.31 0.32 0.35 0.39 0.43
0.24 0.28 0.29 0.33 0.43 0.26 0.12 0.11 0.11 0.21 0.21 0.11 0.08 0.07 0.07 0.08 0.11 0.11 0.16 0.14 0.11 0.13 0.13 0.15 0.19 0.24 0.25 0.23 0.24 0.24 0.24 0.27 0.32 0.33 0.30 0.29 0.29 0.31 0.35 0.38 0.37 0.35 0.35 0.38
0.26 0.33 0.29 0.29 0.36 0.28 0.12 0.13 0.19 0.18 0.11 0.09 0.08 0.07 0.07 0.07 0.07 0.07 0.10 0.12 0.10 0.11 0.12 0.14 0.16 0.21 0.26 0.26 0.25 0.28 0.27 0.27 0.33 0.33 0.31 0.30 0.32 0.33 0.36 0.43 0.42 0.40 0.39 0.36
0.20 0.25 0.29 0.30 0.28 0.19 0.14 0.15 0.16 0.16 0.14 0.11 0.10 0.09 0.06 0.07 0.07 0.06 0.08 0.13 0.09 0.08 0.12 0.15 0.16 0.20 0.25 0.26 0.30 0.32 0.31 0.31 0.32 0.32 0.32 0.33 0.34 0.35 0.36 0.39 0.40 0.42 0.41 0.41
0.14 0.14 0.21 0.22 0.16 0.12 0.14 0.16 0.14 0.13 0.13 0.12 0.13 0.13 0.11 0.10 0.09 0.09 0.09 0.12 0.11 0.09 0.09 0.12 0.14 0.18 0.25 0.29 0.31 0.36 0.37 0.37 0.37 0.38 0.38 0.37 0.38 0.40 0.40 0.42 0.45 0.48 0.49 0.49
0.12 0.14 0.18 0.19 0.12 0.10 0.11 0.14 0.16 0.14 0.12 0.13 0.13 0.14 0.14 0.15 0.15 0.12 0.11 0.12 0.11 0.13 0.13 0.12 0.13 0.16 0.22 0.28 0.30 0.35 0.38 0.41 0.40 0.39 0.42 0.44 0.44 0.44 0.46 0.47 0.49 0.50 0.48 0.50
0.07 0.11 0.16 0.17 0.12 0.12 0.11 0.11 0.14 0.16 0.15 0.13 0.12 0.12 0.14 0.14 0.14 0.13 0.13 0.13 0.13 0.14 0.14 0.14 0.15 0.15 0.17 0.20 0.23 0.27 0.30 0.36 0.40 0.42 0.40 0.40 0.43 0.46 0.45 0.45 0.45 0.48 0.49 0.50